Location: Unspecified
(43.8044°N, 11.0278°E)
Time: 22:44:48
(UTC+02:00)

Resurs 1-4 Rocket - Visible Passes

Search period start: 25 June 2017 00:00
Search period end: 05 July 2017 00:00
Orbit: 801 x 813 km, 98.5° (Epoch: 25 June)

Date Brightness Start Highest point End Pass type
(mag) Time Alt. Az. Time Alt. Az. Time Alt. Az.
25 Jun 3.8 02:42:57 10° NE 02:47:19 25° E 02:50:52 13° SE visible
25 Jun 2.7 04:22:17 10° N 04:27:20 44° WNW 04:31:57 12° SW visible
26 Jun 4.4 02:19:26 10° NE 02:22:29 15° E 02:25:32 10° SE visible
26 Jun 2.2 03:57:33 10° N 04:02:52 72° WNW 04:07:03 17° SSW visible
27 Jun 2.3 03:32:59 10° NNE 03:38:19 71° ESE 03:42:11 19° S visible
28 Jun 3.0 03:08:37 10° NNE 03:13:40 43° E 03:17:17 18° SSE visible
28 Jun 3.3 04:48:52 10° N 04:53:17 27° WNW 04:57:41 10° WSW visible
29 Jun 3.7 02:44:30 10° NE 02:48:56 26° E 02:52:24 14° SE visible
29 Jun 2.7 04:23:55 10° N 04:28:55 43° WNW 04:33:28 12° SW visible
30 Jun 4.3 02:20:55 10° NE 02:24:06 16° E 02:27:17 10° SE visible
30 Jun 2.2 03:59:09 10° N 04:04:28 70° WNW 04:08:35 17° SSW visible
01 Jul 2.2 03:34:34 10° NNE 03:39:55 73° ESE 03:43:42 20° S visible
02 Jul 2.9 03:10:11 10° NNE 03:15:16 44° E 03:18:47 19° SSE visible
02 Jul 3.4 04:50:30 10° N 04:54:51 26° WNW 04:59:12 10° WSW visible
03 Jul 3.7 02:46:04 10° NE 02:50:33 27° E 02:53:53 15° SE visible
03 Jul 2.8 04:25:32 10° N 04:30:30 41° WNW 04:34:59 12° SW visible
04 Jul 4.3 02:22:25 10° NE 02:25:44 17° E 02:29:00 10° SE visible
04 Jul 2.2 04:00:46 10° N 04:06:03 67° WNW 04:10:04 17° SSW visible
